This is the latest recevied weather packets stored in our database for station/object EA1ZE. If no packets are shown the sender has not sent any weather packets the latest 10 day(s).
| Time | Temp. | Humidity | Pressure | Rain* | Wind** | Luminosity | Snow |
|---|---|---|---|---|---|---|---|
| 1788134416 | 60° F | 79% | 763.9 mmHg | 0 in | - | - | - |
| 1788133513 | 61° F | 78% | 763.8 mmHg | 0 in | - | - | - |
| 1788132616 | 61° F | 77% | 763.8 mmHg | 0 in | - | - | - |
| 1788131708 | 62° F | 75% | 763.8 mmHg | 0 in | - | - | - |
| 1788130804 | 63° F | 73% | 763.7 mmHg | 0 in | - | - | - |
| 1788129902 | 63° F | 71% | 763.5 mmHg | 0 in | - | - | - |
| 1788129057 | 64° F | 63% | 763.4 mmHg | 0 in | - | - | - |
| 1788128155 | 66° F | 59% | 763.2 mmHg | 0 in | - | - | - |
| 1788127260 | 69° F | 47% | 763.2 mmHg | 0 in | - | - | - |
| 1788126349 | 70° F | 43% | 762.9 mmHg | 0 in | - | - | - |
| 1788125447 | 70° F | 43% | 762.7 mmHg | 0 in | - | - | - |
| 1788124550 | 71° F | 41% | 762.6 mmHg | 0 in | - | - | - |
| 1788123649 | 72° F | 40% | 762.6 mmHg | 0 in | - | - | - |
| 1788122756 | 72° F | 39% | 762.4 mmHg | 0 in | - | - | - |
| 1788121845 | 73° F | 38% | 762.4 mmHg | 0 in | - | - | - |
| 1788120956 | 73° F | 37% | 762.4 mmHg | 0 in | - | - | - |
| 1788120045 | 74° F | 37% | 762.3 mmHg | 0 in | - | - | - |
| 1788119146 | 75° F | 35% | 762.1 mmHg | 0 in | - | - | - |
| 1788118244 | 76° F | 34% | 762 mmHg | 0 in | - | - | - |
| 1788117375 | 77° F | 32% | 761.8 mmHg | 0 in | - | - | - |
| 1788116454 | 78° F | 32% | 761.8 mmHg | 0 in | - | - | - |
| 1788115542 | 79° F | 31% | 761.7 mmHg | 0 in | - | - | - |
| 1788114641 | 80° F | 30% | 761.5 mmHg | 0 in | - | - | - |
| 1788113743 | 81° F | 29% | 761.6 mmHg | 0 in | - | - | - |
| 1788112843 | 81° F | 29% | 761.5 mmHg | 0 in | - | - | - |
* Rain latest hour (hover to see other rain measurements)
** Current wind speed in m/s (hover to see current wind gust speed)